LSZB

Bern Belp Airport

Airport
ICAO code
LSZB
IATA Code
BRN
Summary
ICAO Region
EUR
ICAO Territory
Location

Belp, Bern

Serving
Bern
Elevation
1674 ft
Coordinates
46° 54' 51" N , 7° 29' 50" E
KCC
Metar
LSZB 152020Z VRB01KT 9999 FEW080 SCT090 12/11 Q1013

Bern Airport is an airport serving Bern, the capital of Switzerland. The airport is located within the town limits of Belp.

Climatology

Humid “subtropical” climate (Köppen climate classification Cfa)

Runways

Designator Length Width Surface Rops
14R/32L 648 30 GRS No/No
14L/32R 650 30 GRS No/No
14/32 1510 30 ASP Yes/Yes

SKYbrary Partners:

Safety knowledge contributed by: